Terug naar catalogus

ICEYE-X57

ActiefWetenschapSSO
NORAD 64578·PAYLOAD·🇺🇸 United States

Gelanceerd Jun 23, 2025 vanaf Vandenberg Space Force Base

Loading…

Volgende Passages (komende 24 uur)

TLE

VersSource: Space-Track

Epoch: Sep 14, 2026, 22:30 UTC

1 64578U 25135BC  26257.93789921  .00003979  00000-0  31777-3 0  9992
2 64578  97.8198  14.7905 0001884  50.4616 309.6774 15.00845254 67488

Volg ICEYE-X57 in realtime met AllMySat

Download on the App Store